Location: Corralito
(14.1667°N, 87.1833°W)
Time: 07:55:01
(UTC+00:00)

Nadezhda 4 Rocket - Pass Details

Date: 03 October 2020
Orbit: 949 x 993 km, 82.9° (Epoch: 20 October)

Event Time Altitude Azimuth Distance (km) Brightness Sun altitude
Rises 00:34:07 0° 353° (N) 3,625 7.1 -14.6°
Reaches altitude 10° 00:36:36 10° 351° (N) 2,683 6.4 -15.2°
Maximum altitude 00:42:43 74° 267° (W) 1,002 4.2 -16.7°
Drops below altitude 10° 00:48:54 10° 183° (S) 2,711 6.4 -18.2°
Sets 00:51:25 0° 181° (S) 3,664 7.0 -18.8°
